TAP1040 LPPT-LEBL

Flight info

Callsign TAP1040
Flight time 1h 25m
Altitude 36000
Route ORVED DCT UREDI DCT DIPOL DCT RBO DCT PINAR DCT SEGRE DCT BRITO DCT PISUS DCT PONEN T600 CASPE
Aircraft A21N/M-SDE2E3FGHIRWXY/LB1

Departure

Time 2026-04-28 17:43
Airport Lisbon Humberto Delgado Airport (LPPT)

Arrival

Time 2026-04-28 19:08
Airport Josep Tarradellas Barcelona-El Prat Airport (LEBL)
Time Latitude Longitude Altitude Speed Heading
2026-04-28 17:10 38.76981 -9.13081 349 ft 0 kts 79°
2026-04-28 17:11 38.76981 -9.13082 349 ft 0 kts 79°
2026-04-28 17:20 38.76981 -9.13083 350 ft 0 kts 79°
2026-04-28 17:30 38.76981 -9.13084 350 ft 0 kts 79°
2026-04-28 17:33 38.76979 -9.13093 352 ft 2 kts 79°
2026-04-28 17:33 38.76976 -9.13113 352 ft 2 kts 79°
2026-04-28 17:33 38.76974 -9.13133 352 ft 2 kts 94°
2026-04-28 17:33 38.76975 -9.13140 352 ft 2 kts 104°
2026-04-28 17:34 38.76989 -9.13166 350 ft 2 kts 157°
2026-04-28 17:34 38.76997 -9.13168 349 ft 0 kts 172°
2026-04-28 17:35 38.76997 -9.13169 349 ft 0 kts 172°
2026-04-28 17:37 38.76962 -9.13161 347 ft 11 kts 168°
2026-04-28 17:37 38.76880 -9.13138 344 ft 13 kts 168°
2026-04-28 17:38 38.76790 -9.13148 346 ft 15 kts 231°
2026-04-28 17:38 38.76761 -9.13282 349 ft 17 kts 258°
2026-04-28 17:38 38.76708 -9.13415 349 ft 18 kts 214°
2026-04-28 17:38 38.76642 -9.13551 359 ft 19 kts 260°
2026-04-28 17:39 38.76622 -9.13683 351 ft 16 kts 258°
2026-04-28 17:39 38.76600 -9.13825 358 ft 17 kts 258°
2026-04-28 17:39 38.76499 -9.14114 359 ft 19 kts 256°
2026-04-28 17:40 38.76518 -9.14245 350 ft 10 kts 292°
2026-04-28 17:40 38.76531 -9.14284 351 ft 0 kts 292°
2026-04-28 17:40 38.76532 -9.14286 351 ft 1 kts 292°
2026-04-28 17:41 38.76542 -9.14316 344 ft 5 kts 294°
2026-04-28 17:41 38.76564 -9.14373 339 ft 14 kts 311°
2026-04-28 17:41 38.76635 -9.14393 348 ft 0 kts 20°
2026-04-28 17:42 38.76713 -9.14353 347 ft 39 kts 22°
2026-04-28 17:42 38.77164 -9.14110 362 ft 99 kts 22°
2026-04-28 17:42 38.77973 -9.13687 372 ft 150 kts 21°
2026-04-28 17:42 38.79019 -9.13084 640 ft 168 kts 25°
2026-04-28 17:43 38.80057 -9.12339 1118 ft 177 kts 30°
2026-04-28 17:43 38.81158 -9.11506 1600 ft 187 kts 29°
2026-04-28 17:43 38.82295 -9.10677 2253 ft 191 kts 28°
2026-04-28 17:43 38.83510 -9.09838 2742 ft 207 kts 29°
2026-04-28 17:44 38.84815 -9.08899 3319 ft 225 kts 33°
2026-04-28 17:44 38.85904 -9.07325 3631 ft 251 kts 65°
2026-04-28 17:44 38.86655 -9.05214 4161 ft 267 kts 68°
2026-04-28 17:44 38.87414 -9.03017 4945 ft 272 kts 66°
2026-04-28 17:45 38.88202 -9.00800 5779 ft 275 kts 66°
2026-04-28 17:45 38.89017 -8.98567 6603 ft 278 kts 65°
2026-04-28 17:45 38.89849 -8.96311 7395 ft 282 kts 65°
2026-04-28 17:45 38.90704 -8.94024 8196 ft 287 kts 65°
2026-04-28 17:46 38.91577 -8.91703 8989 ft 292 kts 65°
2026-04-28 17:46 38.92460 -8.89371 9806 ft 295 kts 65°
2026-04-28 17:46 38.93394 -8.86903 10286 ft 313 kts 65°
2026-04-28 17:46 38.94378 -8.84299 10609 ft 334 kts 65°
2026-04-28 17:47 38.95409 -8.81568 10916 ft 354 kts 65°
2026-04-28 17:47 38.96507 -8.78649 11353 ft 368 kts 65°
2026-04-28 17:47 38.97627 -8.75671 12102 ft 371 kts 65°
2026-04-28 17:47 38.98387 -8.73650 12613 ft 373 kts 65°
2026-04-28 17:48 38.99889 -8.69636 13570 ft 379 kts 65°
2026-04-28 17:48 39.01037 -8.66563 14201 ft 384 kts 65°
2026-04-28 17:48 39.02203 -8.63452 14830 ft 388 kts 65°
2026-04-28 17:48 39.03375 -8.60319 15469 ft 392 kts 65°
2026-04-28 17:49 39.04598 -8.57166 16098 ft 395 kts 64°
2026-04-28 17:49 39.05840 -8.53995 16712 ft 399 kts 64°
2026-04-28 17:49 39.07089 -8.50790 17318 ft 402 kts 65°
2026-04-28 17:49 39.08342 -8.47559 17902 ft 406 kts 65°
2026-04-28 17:50 39.09607 -8.44283 18429 ft 410 kts 65°
2026-04-28 17:50 39.10875 -8.40985 18928 ft 412 kts 65°
2026-04-28 17:50 39.12153 -8.37667 19442 ft 415 kts 65°
2026-04-28 17:50 39.13424 -8.34361 19932 ft 418 kts 65°
2026-04-28 17:51 39.14719 -8.30986 20431 ft 422 kts 65°
2026-04-28 17:51 39.16041 -8.27544 20928 ft 425 kts 65°
2026-04-28 17:51 39.17351 -8.24114 21415 ft 428 kts 65°
2026-04-28 17:51 39.18673 -8.20661 21903 ft 431 kts 66°
2026-04-28 17:52 39.19989 -8.17225 22381 ft 434 kts 66°
2026-04-28 17:52 39.21329 -8.13723 22853 ft 437 kts 66°
2026-04-28 17:52 39.24028 -8.06642 23694 ft 442 kts 66°
2026-04-28 17:53 39.25387 -8.03071 24062 ft 445 kts 66°
2026-04-28 17:53 39.26754 -7.99480 24420 ft 447 kts 66°
2026-04-28 17:53 39.28125 -7.95872 24776 ft 449 kts 66°
2026-04-28 17:53 39.29503 -7.92239 25116 ft 452 kts 66°
2026-04-28 17:54 39.30885 -7.88587 25463 ft 454 kts 66°
2026-04-28 17:54 39.32274 -7.84915 25789 ft 456 kts 66°
2026-04-28 17:54 39.33666 -7.81223 26107 ft 458 kts 66°
2026-04-28 17:54 39.35064 -7.77511 26422 ft 461 kts 66°
2026-04-28 17:55 39.36472 -7.73781 26725 ft 463 kts 66°
2026-04-28 17:55 39.37887 -7.70027 27019 ft 465 kts 66°
2026-04-28 17:55 39.39300 -7.66265 27315 ft 467 kts 66°
2026-04-28 17:55 39.40726 -7.62468 27604 ft 469 kts 66°
2026-04-28 17:56 39.42152 -7.58669 27866 ft 471 kts 66°
2026-04-28 17:56 39.43585 -7.54840 28138 ft 474 kts 66°
2026-04-28 17:56 39.45022 -7.50999 28404 ft 476 kts 66°
2026-04-28 17:56 39.46465 -7.47135 28677 ft 477 kts 66°
2026-04-28 17:57 39.47911 -7.43257 28940 ft 479 kts 66°
2026-04-28 17:57 39.49355 -7.39381 29251 ft 479 kts 66°
2026-04-28 17:57 39.50800 -7.35492 29596 ft 478 kts 67°
2026-04-28 17:57 39.52242 -7.31611 29931 ft 478 kts 67°
2026-04-28 17:58 39.53680 -7.27741 30226 ft 477 kts 67°
2026-04-28 17:58 39.55113 -7.23865 30533 ft 476 kts 67°
2026-04-28 17:58 39.56530 -7.19997 30817 ft 475 kts 67°
2026-04-28 17:58 39.57944 -7.16135 31105 ft 474 kts 67°
2026-04-28 17:59 39.59367 -7.12274 31388 ft 474 kts 67°
2026-04-28 17:59 39.60767 -7.08481 31644 ft 473 kts 67°
2026-04-28 17:59 39.62184 -7.04632 31914 ft 473 kts 67°
2026-04-28 17:59 39.63599 -7.00785 32183 ft 472 kts 68°
2026-04-28 18:00 39.65009 -6.96939 32454 ft 471 kts 68°
2026-04-28 18:00 39.66414 -6.93103 32708 ft 471 kts 68°
2026-04-28 18:00 39.67827 -6.89265 32954 ft 470 kts 68°
2026-04-28 18:00 39.69233 -6.85444 33211 ft 470 kts 68°
2026-04-28 18:01 39.70639 -6.81612 33378 ft 470 kts 68°
2026-04-28 18:01 39.72040 -6.77770 33516 ft 472 kts 68°
2026-04-28 18:01 39.73447 -6.73910 33696 ft 473 kts 68°
2026-04-28 18:01 39.74855 -6.70055 33906 ft 472 kts 68°
2026-04-28 18:02 39.76255 -6.66197 34079 ft 472 kts 68°
2026-04-28 18:02 39.77651 -6.62333 34248 ft 471 kts 68°
2026-04-28 18:02 39.79045 -6.58483 34417 ft 471 kts 68°
2026-04-28 18:02 39.80440 -6.54628 34585 ft 470 kts 68°
2026-04-28 18:03 39.81831 -6.50777 34751 ft 470 kts 68°
2026-04-28 18:03 39.83218 -6.46936 34911 ft 469 kts 68°
2026-04-28 18:03 39.85977 -6.39265 35115 ft 471 kts 69°
2026-04-28 18:04 39.88577 -6.31439 35347 ft 471 kts 69°
2026-04-28 18:04 39.89878 -6.27525 35475 ft 471 kts 69°
2026-04-28 18:04 39.91182 -6.23603 35609 ft 471 kts 69°
2026-04-28 18:05 39.92484 -6.19682 35754 ft 471 kts 69°
2026-04-28 18:05 39.93362 -6.17037 35840 ft 471 kts 69°
2026-04-28 18:05 39.96406 -6.07931 35836 ft 471 kts 69°
2026-04-28 18:06 39.99018 -6.00052 35830 ft 473 kts 69°
2026-04-28 18:06 40.01612 -5.92166 35832 ft 473 kts 69°
2026-04-28 18:07 40.04200 -5.84283 35833 ft 473 kts 69°
2026-04-28 18:07 40.06786 -5.76359 35854 ft 474 kts 69°
2026-04-28 18:08 40.09363 -5.68445 35846 ft 474 kts 69°
2026-04-28 18:08 40.11949 -5.60515 35867 ft 474 kts 69°
2026-04-28 18:09 40.14535 -5.52577 35860 ft 475 kts 69°
2026-04-28 18:09 40.17108 -5.44626 35865 ft 474 kts 69°
2026-04-28 18:10 40.19678 -5.36662 35879 ft 474 kts 69°
2026-04-28 18:10 40.22240 -5.28688 35875 ft 477 kts 69°
2026-04-28 18:11 40.24810 -5.20684 35874 ft 476 kts 69°
2026-04-28 18:11 40.27357 -5.12726 35881 ft 476 kts 69°
2026-04-28 18:12 40.29918 -5.04699 35887 ft 477 kts 69°
2026-04-28 18:12 40.32465 -4.96691 35870 ft 477 kts 69°
2026-04-28 18:13 40.35022 -4.88629 35871 ft 480 kts 69°
2026-04-28 18:13 40.37573 -4.80564 35874 ft 480 kts 69°
2026-04-28 18:14 40.40108 -4.72511 35866 ft 477 kts 69°
2026-04-28 18:14 40.42637 -4.64455 35867 ft 479 kts 69°
2026-04-28 18:15 40.45166 -4.56390 35861 ft 477 kts 69°
2026-04-28 18:15 40.47689 -4.48324 35864 ft 477 kts 69°
2026-04-28 18:16 40.50207 -4.40243 35879 ft 477 kts 69°
2026-04-28 18:16 40.52716 -4.32168 35877 ft 477 kts 69°
2026-04-28 18:17 40.55218 -4.24085 35887 ft 478 kts 69°
2026-04-28 18:17 40.57713 -4.15997 35890 ft 478 kts 69°
2026-04-28 18:18 40.60206 -4.07900 35882 ft 477 kts 69°
2026-04-28 18:18 40.62278 -4.01147 35883 ft 478 kts 69°
2026-04-28 18:19 40.65169 -3.91687 35876 ft 477 kts 69°
2026-04-28 18:19 40.67650 -3.83563 35880 ft 479 kts 69°
2026-04-28 18:20 40.70118 -3.75453 35876 ft 475 kts 69°
2026-04-28 18:20 40.72551 -3.67416 35871 ft 475 kts 69°
2026-04-28 18:21 40.75001 -3.59315 35868 ft 475 kts 69°
2026-04-28 18:21 40.77440 -3.51214 35873 ft 475 kts 69°
2026-04-28 18:22 40.79880 -3.43092 35872 ft 475 kts 69°
2026-04-28 18:22 40.82313 -3.34968 35864 ft 475 kts 69°
2026-04-28 18:23 40.84737 -3.26846 35858 ft 475 kts 70°
2026-04-28 18:23 40.86627 -3.18504 35867 ft 474 kts 77°
2026-04-28 18:24 40.87718 -3.12861 35863 ft 474 kts 77°
2026-04-28 18:24 40.89900 -3.01621 35863 ft 474 kts 77°
2026-04-28 18:25 40.91562 -2.93168 35869 ft 474 kts 77°
2026-04-28 18:26 40.94055 -2.80495 35871 ft 475 kts 77°
2026-04-28 18:26 40.95698 -2.72032 35887 ft 474 kts 77°
2026-04-28 18:27 40.97315 -2.63642 35875 ft 474 kts 77°
2026-04-28 18:27 40.98939 -2.55185 35883 ft 474 kts 77°
2026-04-28 18:28 41.00550 -2.46725 35866 ft 474 kts 77°
2026-04-28 18:28 41.02159 -2.38263 35877 ft 474 kts 77°
2026-04-28 18:29 41.03502 -2.31173 35875 ft 474 kts 77°
2026-04-28 18:29 41.05103 -2.22714 35880 ft 473 kts 77°
2026-04-28 18:30 41.06687 -2.14303 35880 ft 473 kts 77°
2026-04-28 18:30 41.08288 -2.05773 35884 ft 474 kts 77°
2026-04-28 18:31 41.09855 -1.97354 35888 ft 473 kts 77°
2026-04-28 18:31 41.11430 -1.88863 35892 ft 473 kts 77°
2026-04-28 18:32 41.12992 -1.80389 35891 ft 472 kts 77°
2026-04-28 18:32 41.14551 -1.71917 35888 ft 472 kts 78°
2026-04-28 18:33 41.16100 -1.63440 35892 ft 474 kts 78°
2026-04-28 18:33 41.17641 -1.54957 35885 ft 472 kts 78°
2026-04-28 18:34 41.19182 -1.46482 35881 ft 472 kts 78°
2026-04-28 18:34 41.20714 -1.38011 35883 ft 472 kts 78°
2026-04-28 18:35 41.22240 -1.29533 35877 ft 472 kts 78°
2026-04-28 18:35 41.23757 -1.21056 35883 ft 472 kts 78°
2026-04-28 18:36 41.25270 -1.12570 35875 ft 473 kts 78°
2026-04-28 18:36 41.26782 -1.04052 35873 ft 473 kts 78°
2026-04-28 18:37 41.28283 -0.95549 35866 ft 473 kts 78°
2026-04-28 18:37 41.29777 -0.87035 35864 ft 473 kts 78°
2026-04-28 18:38 41.31256 -0.78568 35863 ft 473 kts 78°
2026-04-28 18:38 41.32741 -0.70067 35863 ft 470 kts 78°
2026-04-28 18:39 41.34206 -0.61595 35864 ft 470 kts 78°
2026-04-28 18:39 41.35201 -0.53016 35861 ft 468 kts 94°
2026-04-28 18:40 41.34310 -0.44461 35863 ft 465 kts 102°
2026-04-28 18:40 41.33266 -0.35982 35868 ft 464 kts 101°
2026-04-28 18:41 41.32302 -0.27543 35479 ft 457 kts 101°
2026-04-28 18:41 41.31833 -0.23369 34838 ft 456 kts 101°
2026-04-28 18:41 41.31365 -0.19190 34105 ft 458 kts 101°
2026-04-28 18:41 41.30889 -0.14988 33273 ft 460 kts 101°
2026-04-28 18:42 41.30408 -0.10766 32316 ft 465 kts 101°
2026-04-28 18:42 41.29915 -0.06492 31313 ft 471 kts 101°
2026-04-28 18:42 41.29414 -0.02177 30566 ft 471 kts 101°
2026-04-28 18:42 41.28918 0.02111 30014 ft 466 kts 101°
2026-04-28 18:43 41.28430 0.06340 29459 ft 459 kts 101°
2026-04-28 18:43 41.27947 0.10506 28875 ft 453 kts 101°
2026-04-28 18:43 41.27467 0.14616 28248 ft 448 kts 101°
2026-04-28 18:43 41.27120 0.18720 27628 ft 445 kts 92°
2026-04-28 18:44 41.27430 0.22793 27041 ft 443 kts 78°
2026-04-28 18:44 41.29131 0.30587 25854 ft 436 kts 74°
2026-04-28 18:44 41.30004 0.34424 25293 ft 432 kts 74°
2026-04-28 18:45 41.30853 0.38241 24730 ft 428 kts 75°
2026-04-28 18:45 41.31639 0.42040 24173 ft 424 kts 79°
2026-04-28 18:45 41.32158 0.45872 23621 ft 421 kts 82°
2026-04-28 18:45 41.32618 0.49706 22997 ft 417 kts 82°
2026-04-28 18:46 41.33077 0.53501 22389 ft 414 kts 82°
2026-04-28 18:46 41.33543 0.57264 21813 ft 410 kts 82°
2026-04-28 18:46 41.34011 0.60990 21225 ft 407 kts 82°
2026-04-28 18:46 41.34472 0.64647 20642 ft 405 kts 82°
2026-04-28 18:47 41.34938 0.68335 20111 ft 402 kts 82°
2026-04-28 18:47 41.35400 0.71997 19545 ft 400 kts 82°
2026-04-28 18:47 41.35858 0.75635 18994 ft 398 kts 81°
2026-04-28 18:47 41.36312 0.79262 18482 ft 395 kts 81°
2026-04-28 18:48 41.36759 0.82847 17951 ft 391 kts 81°
2026-04-28 18:48 41.37202 0.86402 17400 ft 388 kts 81°
2026-04-28 18:48 41.37639 0.89929 16869 ft 384 kts 81°
2026-04-28 18:48 41.38073 0.93424 16355 ft 381 kts 81°
2026-04-28 18:49 41.38500 0.96883 15841 ft 377 kts 82°
2026-04-28 18:49 41.38781 0.99164 15501 ft 375 kts 82°
2026-04-28 18:49 41.39341 1.03721 14848 ft 371 kts 82°
2026-04-28 18:49 41.39755 1.07102 14348 ft 369 kts 82°
2026-04-28 18:50 41.40165 1.10458 13864 ft 366 kts 82°
2026-04-28 18:50 41.40572 1.13792 13354 ft 363 kts 82°
2026-04-28 18:50 41.40973 1.17096 12872 ft 359 kts 82°
2026-04-28 18:50 41.41367 1.20354 12427 ft 354 kts 82°
2026-04-28 18:51 41.41759 1.23575 11973 ft 351 kts 82°
2026-04-28 18:51 41.42144 1.26765 11516 ft 347 kts 82°
2026-04-28 18:51 41.42525 1.29925 11073 ft 344 kts 82°
2026-04-28 18:51 41.42902 1.33056 10710 ft 338 kts 82°
2026-04-28 18:52 41.43269 1.36104 10492 ft 327 kts 83°
2026-04-28 18:52 41.43622 1.39042 10156 ft 315 kts 83°
2026-04-28 18:52 41.43960 1.41863 9900 ft 303 kts 83°
2026-04-28 18:52 41.44284 1.44597 9668 ft 295 kts 83°
2026-04-28 18:53 41.44601 1.47281 9306 ft 292 kts 83°
2026-04-28 18:53 41.44916 1.49947 8906 ft 290 kts 83°
2026-04-28 18:53 41.45231 1.52596 8498 ft 288 kts 83°
2026-04-28 18:53 41.45541 1.55222 8137 ft 286 kts 83°
2026-04-28 18:54 41.45849 1.57831 7773 ft 284 kts 83°
2026-04-28 18:54 41.46140 1.60420 7422 ft 281 kts 87°
2026-04-28 18:54 41.46162 1.63005 7077 ft 278 kts 94°
2026-04-28 18:54 41.46095 1.65543 6748 ft 276 kts 94°
2026-04-28 18:55 41.46034 1.68089 6414 ft 274 kts 94°
2026-04-28 18:55 41.45995 1.69802 6187 ft 273 kts 94°
2026-04-28 18:55 41.45928 1.73141 5999 ft 272 kts 93°
2026-04-28 18:55 41.45881 1.75658 5988 ft 272 kts 94°
2026-04-28 18:56 41.45836 1.78176 6002 ft 272 kts 93°
2026-04-28 18:56 41.45791 1.80699 6007 ft 272 kts 93°
2026-04-28 18:56 41.45746 1.83227 6014 ft 273 kts 93°
2026-04-28 18:56 41.45699 1.85749 6022 ft 273 kts 93°
2026-04-28 18:57 41.45650 1.88275 6006 ft 273 kts 94°
2026-04-28 18:57 41.45601 1.90802 6008 ft 273 kts 93°
2026-04-28 18:57 41.45554 1.93325 6000 ft 272 kts 93°
2026-04-28 18:57 41.45507 1.95850 5999 ft 272 kts 93°
2026-04-28 18:58 41.45459 1.98375 5998 ft 272 kts 93°
2026-04-28 18:58 41.45409 2.00893 6002 ft 272 kts 93°
2026-04-28 18:58 41.45360 2.03413 6000 ft 270 kts 94°
2026-04-28 18:58 41.45313 2.05896 5703 ft 266 kts 94°
2026-04-28 18:59 41.45265 2.08365 5309 ft 266 kts 94°
2026-04-28 18:59 41.45214 2.10829 4927 ft 265 kts 94°
2026-04-28 18:59 41.45159 2.13276 4562 ft 263 kts 94°
2026-04-28 18:59 41.45104 2.15708 4178 ft 263 kts 94°
2026-04-28 19:00 41.45050 2.18131 4002 ft 261 kts 94°
2026-04-28 19:00 41.44998 2.20544 3971 ft 258 kts 94°
2026-04-28 19:00 41.44952 2.22924 3980 ft 261 kts 94°
2026-04-28 19:00 41.44903 2.25356 3989 ft 255 kts 94°
2026-04-28 19:01 41.44857 2.27613 3990 ft 238 kts 94°
2026-04-28 19:01 41.44821 2.29733 3977 ft 220 kts 90°
2026-04-28 19:01 41.44997 2.31659 3973 ft 197 kts 91°
2026-04-28 19:01 41.44599 2.33225 4018 ft 175 kts 126°
2026-04-28 19:02 41.43799 2.34431 4024 ft 173 kts 139°
2026-04-28 19:02 41.42789 2.35342 4023 ft 178 kts 154°
2026-04-28 19:02 41.41625 2.35806 3726 ft 175 kts 172°
2026-04-28 19:02 41.40405 2.35740 3349 ft 178 kts 189°
2026-04-28 19:03 41.39240 2.35154 3047 ft 182 kts 208°
2026-04-28 19:03 41.38400 2.33897 2982 ft 187 kts 242°
2026-04-28 19:03 41.37927 2.32289 3049 ft 185 kts 248°
2026-04-28 19:03 41.37495 2.30702 3042 ft 181 kts 247°
2026-04-28 19:04 41.36999 2.29158 2936 ft 181 kts 243°
2026-04-28 19:04 41.36483 2.27633 2751 ft 181 kts 243°
2026-04-28 19:04 41.35962 2.26107 2519 ft 181 kts 243°
2026-04-28 19:04 41.35442 2.24585 2292 ft 181 kts 243°
2026-04-28 19:05 41.34921 2.23062 2037 ft 181 kts 243°
2026-04-28 19:05 41.34401 2.21542 1796 ft 180 kts 243°
2026-04-28 19:05 41.33884 2.20029 1553 ft 179 kts 244°
2026-04-28 19:05 41.33369 2.18521 1316 ft 171 kts 243°
2026-04-28 19:06 41.32915 2.17192 1063 ft 147 kts 244°
2026-04-28 19:06 41.32637 2.16381 939 ft 146 kts 243°
2026-04-28 19:06 41.32072 2.14731 709 ft 146 kts 244°
2026-04-28 19:06 41.31653 2.13514 532 ft 144 kts 244°
2026-04-28 19:07 41.31231 2.12284 314 ft 147 kts 245°
2026-04-28 19:07 41.30800 2.11056 150 ft 147 kts 245°
2026-04-28 19:07 41.30378 2.09810 10 ft 146 kts 246°
2026-04-28 19:07 41.30031 2.08781 11 ft 91 kts 251°
2026-04-28 19:08 41.29840 2.08215 10 ft 48 kts 238°
2026-04-28 19:08 41.29700 2.07945 9 ft 26 kts 229°
2026-04-28 19:08 41.29624 2.07855 9 ft 10 kts 214°
2026-04-28 19:08 41.29607 2.07841 9 ft 0 kts 213°
2026-04-28 19:09 41.29593 2.07829 9 ft 4 kts 212°
2026-04-28 19:09 41.29554 2.07796 9 ft 9 kts 213°
2026-04-28 19:10 41.29495 2.07739 8 ft 11 kts 223°
2026-04-28 19:10 41.29448 2.07645 8 ft 13 kts 242°
2026-04-28 19:10 41.29404 2.07528 8 ft 15 kts 244°
2026-04-28 19:10 41.29356 2.07397 8 ft 16 kts 244°
2026-04-28 19:11 41.29304 2.07254 8 ft 18 kts 244°
2026-04-28 19:11 41.29253 2.07115 9 ft 0 kts 244°
2026-04-28 19:11 41.29252 2.07110 9 ft 3 kts 250°
2026-04-28 19:11 41.29235 2.07072 8 ft 7 kts 217°
2026-04-28 19:12 41.29183 2.07078 8 ft 9 kts 157°
2026-04-28 19:12 41.29135 2.07135 8 ft 8 kts 123°
2026-04-28 19:12 41.29100 2.07172 8 ft 4 kts 151°
2026-04-28 19:12 41.29085 2.07183 8 ft 0 kts 154°
2026-04-28 19:13 41.29083 2.07185 8 ft 1 kts 152°
2026-04-28 19:13 41.29081 2.07186 8 ft 0 kts 153°